GW3320 Weather Reports


time (UTC)temp
C
wind
direction
speed
KPH
gust
KPH
rain 1hr
cm
rain 24hr
cm
rain mn
cm
humidity
%
barometer
mb
20260504235023 25 155 3.2 9.7 0.00 0.00 0.00 40 1001.2
20260504234546 26 154 4.8 9.7 0.00 0.00 0.00 38 1001.2
20260504234022 26 165 4.8 9.7 0.00 0.00 0.00 39 1001.2
20260504233525 26 163 4.8 12.9 0.00 0.00 0.00 38 1001.1
20260504233040 26 166 6.4 12.9 0.00 0.00 0.00 38 1001.2
20260504232522 26 176 6.4 11.3 0.00 0.00 0.00 37 1001.1
20260504232024 26 178 3.2 8.0 0.00 0.00 0.00 37 1001.2
20260504231556 27 178 3.2 14.5 0.00 0.00 0.00 36 1001.2
20260504231024 27 179 6.4 14.5 0.00 0.00 0.00 34 1001.1
20260504230525 27 207 1.6 4.8 0.00 0.00 0.00 31 1001.2
20260504230046 27 207 0.0 6.4 0.00 0.00 0.00 26 1001.1
20260504225521 27 207 1.6 6.4 0.00 0.00 0.00 26 1001.1
20260504225023 27 248 1.6 8.0 0.00 0.00 0.00 26 1001.2
20260504224541 27 247 3.2 9.7 0.00 0.00 0.00 27 1001.1
20260504224025 27 251 1.6 9.7 0.00 0.00 0.00 26 1001.1
20260504223525 28 232 3.2 9.7 0.00 0.00 0.00 27 1000.9
20260504223043 28 223 4.8 9.7 0.00 0.00 0.00 24 1001.0
20260504222525 28 203 6.4 11.3 0.00 0.00 0.00 24 1000.9
20260504222021 28 207 4.8 11.3 0.00 0.00 0.00 27 1000.8
20260504221556 28 229 0.0 8.0 0.00 0.00 0.00 25 1000.9
20260504221026 28 0 1.6 8.0 0.00 0.00 0.00 22 1000.9
20260504220525 29 0 0.0 9.7 0.00 0.00 0.00 25 1000.9
20260504220046 29 236 3.2 9.7 0.00 0.00 0.00 26 1000.9
20260504215525 29 269 1.6 12.9 0.00 0.00 0.00 23 1000.9
20260504215028 29 267 1.6 12.9 0.00 0.00 0.00 22 1001.0
20260504214545 29 202 4.8 12.9 0.00 0.00 0.00 24 1001.0
20260504214028 28 222 6.4 12.9 0.00 0.00 0.00 25 1001.0
20260504213525 28 214 1.6 11.3 0.00 0.00 0.00 24 1001.0
20260504213044 28 215 3.2 9.7 0.00 0.00 0.00 23 1001.0
20260504212529 29 206 3.2 9.7 0.00 0.00 0.00 26 1001.1
20260504212025 29 159 3.2 8.0 0.00 0.00 0.00 24 1001.1
20260504211548 29 156 1.6 11.3 0.00 0.00 0.00 26 1001.2
20260504211027 29 0 4.8 11.3 0.00 0.00 0.00 28 1001.2
20260504210527 29 218 3.2 9.7 0.00 0.00 0.00 24 1001.2
20260504210104 29 315 1.6 6.4 0.00 0.00 0.00 24 1001.3
20260504205525 29 321 3.2 8.0 0.00 0.00 0.00 23 1001.4
20260504205025 29 334 1.6 8.0 0.00 0.00 0.00 25 1001.4
20260504204548 29 349 3.2 8.0 0.00 0.00 0.00 23 1001.5
20260504204025 29 19 3.2 12.9 0.00 0.00 0.00 24 1001.6
20260504203526 29 343 3.2 14.5 0.00 0.00 0.00 24 1001.7
20260504203049 29 330 8.0 14.5 0.00 0.00 0.00 24 1001.7
20260504202526 29 304 3.2 8.0 0.00 0.00 0.00 25 1001.7
20260504202024 28 290 0.0 9.7 0.00 0.00 0.00 25 1001.8
20260504201549 28 295 3.2 11.3 0.00 0.00 0.00 25 1001.8
20260504201024 28 259 4.8 11.3 0.00 0.00 0.00 26 1001.8
20260504200525 28 301 0.0 9.7 0.00 0.00 0.00 27 1001.9
20260504200042 28 307 4.8 12.9 0.00 0.00 0.00 27 1001.9
20260504195526 28 321 3.2 12.9 0.00 0.00 0.00 27 1002.1
20260504195027 28 273 4.8 11.3 0.00 0.00 0.00 26 1002.0
20260504194602 28 0 0.0 9.7 0.00 0.00 0.00 25 1002.1
20260504194027 27 0 3.2 11.3 0.00 0.00 0.00 30 1002.2
20260504193525 27 315 4.8 12.9 0.00 0.00 0.00 25 1002.1
20260504193044 28 296 4.8 12.9 0.00 0.00 0.00 28 1002.1
20260504192525 28 347 8.0 14.5 0.00 0.00 0.00 26 1002.1
20260504192029 28 0 4.8 14.5 0.00 0.00 0.00 25 1002.1
20260504191547 28 308 6.4 14.5 0.00 0.00 0.00 27 1002.1
20260504191027 28 0 0.0 6.4 0.00 0.00 0.00 26 1002.1
20260504190525 28 0 3.2 11.3 0.00 0.00 0.00 29 1002.2
20260504190057 28 61 0.0 11.3 0.00 0.00 0.00 27 1002.2
20260504185530 28 58 3.2 16.1 0.00 0.00 0.00 29 1002.2
20260504185031 28 323 1.6 16.1 0.00 0.00 0.00 27 1002.2
20260504184555 28 317 8.0 16.1 0.00 0.00 0.00 26 1002.2
20260504184026 28 11 1.6 9.7 0.00 0.00 0.00 28 1002.2
20260504183530 28 50 3.2 20.9 0.00 0.00 0.00 26 1002.2
20260504183041 28 331 3.2 20.9 0.00 0.00 0.00 27 1002.3
20260504182527 28 312 11.3 20.9 0.00 0.00 0.00 27 1002.3
20260504182026 28 294 3.2 17.7 0.00 0.00 0.00 27 1002.3
20260504181548 28 281 11.3 17.7 0.00 0.00 0.00 23 1002.3
20260504181025 28 346 1.6 17.7 0.00 0.00 0.00 31 1002.2
20260504180525 28 0 3.2 17.7 0.00 0.00 0.00 28 1002.3
20260504180115 28 355 9.7 20.9 0.00 0.00 0.00 28 1002.3
20260504175524 27 345 11.3 20.9 0.00 0.00 0.00 30 1002.4
20260504175025 27 291 1.6 19.3 0.00 0.00 0.00 29 1002.3
20260504174549 27 306 9.7 20.9 0.00 0.00 0.00 26 1002.4
20260504174025 27 336 6.4 22.5 0.00 0.00 0.00 28 1002.4
20260504173526 27 342 9.7 22.5 0.00 0.00 0.00 30 1002.5
20260504173053 27 337 4.8 17.7 0.00 0.00 0.00 30 1002.5
20260504172525 27 324 3.2 17.7 0.00 0.00 0.00 29 1002.6
20260504172027 27 320 3.2 17.7 0.00 0.00 0.00 31 1002.6
20260504171542 27 328 6.4 17.7 0.00 0.00 0.00 29 1002.6
20260504171025 27 313 8.0 20.9 0.00 0.00 0.00 31 1002.7
20260504170525 27 312 11.3 24.1 0.00 0.00 0.00 30 1002.8
20260504151028 21 292 3.2 11.3 0.00 0.00 0.00 50 1003.2
20260504150524 20 290 3.2 11.3 0.00 0.00 0.00 50 1003.1
20260504141031 18 240 3.2 12.9 0.00 0.00 0.00 55 1003.2
20260504140527 18 231 4.8 14.5 0.00 0.00 0.00 53 1003.1
20260504130524 16 210 8.0 16.1 0.00 0.00 0.00 62 1002.7
20260504110528 10 186 8.0 14.5 0.00 0.00 0.00 82 1001.6
20260504100525 7 0 0.0 0.0 0.00 0.00 0.00 86 1002.7
20260504081542 9 0 0.0 3.2 0.00 0.00 0.00 80 1003.8
20260504081028 10 71 0.0 3.2 0.00 0.00 0.00 80 1003.6
20260504080526 10 0 0.0 3.2 0.00 0.00 0.00 80 1003.6
20260504050526 16 0 0.0 1.6 0.00 0.00 0.00 62 1005.7
20260504050113 16 0 0.0 0.0 0.00 0.00 0.00 61 1005.8
20260504045523 16 0 0.0 0.0 0.00 0.00 0.00 60 1005.8
20260504045023 17 0 0.0 1.6 0.00 0.00 0.00 59 1005.9
20260504044541 17 0 0.0 9.7 0.00 0.00 0.00 57 1005.8
20260504044026 17 0 0.0 9.7 0.00 0.00 0.00 57 1005.8
20260504043531 18 61 3.2 9.7 0.00 0.00 0.00 56 1005.7
20260504043044 18 196 0.0 3.2 0.00 0.00 0.00 55 1005.8
20260504042527 18 196 1.6 6.4 0.00 0.00 0.00 55 1005.9
20260504042026 18 0 1.6 6.4 0.00 0.00 0.00 55 1005.9
20260504041541 17 198 0.0 3.2 0.00 0.00 0.00 55 1005.9
20260504041026 18 0 0.0 16.1 0.00 0.00 0.00 55 1005.8
20260504040525 18 0 6.4 16.1 0.00 0.00 0.00 54 1005.9
20260504040042 18 120 6.4 16.1 0.00 0.00 0.00 54 1005.7
20260504035525 18 126 3.2 11.3 0.00 0.00 0.00 54 1005.8
20260504035025 18 135 3.2 19.3 0.00 0.00 0.00 53 1005.9
20260504034550 18 65 4.8 19.3 0.00 0.00 0.00 52 1005.9
20260504034027 19 141 6.4 19.3 0.00 0.00 0.00 51 1005.8
20260504033534 19 99 8.0 27.4 0.00 0.00 0.00 51 1005.9
20260504033045 19 103 11.3 27.4 0.00 0.00 0.00 50 1006.0
20260504032526 19 89 9.7 22.5 0.00 0.00 0.00 50 1006.0
20260504032025 19 92 4.8 17.7 0.00 0.00 0.00 50 1006.2
20260504031603 19 117 3.2 11.3 0.00 0.00 0.00 49 1006.4
20260504031026 19 99 3.2 12.9 0.00 0.00 0.00 49 1006.5
20260504030526 19 86 4.8 12.9 0.00 0.00 0.00 50 1006.6
20260504030045 19 74 1.6 4.8 0.00 0.00 0.00 50 1006.6
20260504025530 20 0 0.0 3.2 0.00 0.00 0.00 49 1006.6
20260504025025 20 0 0.0 11.3 0.00 0.00 0.00 47 1006.6
20260504024546 21 0 0.0 16.1 0.00 0.00 0.00 46 1006.6
20260504024029 21 81 8.0 16.1 0.00 0.00 0.00 44 1006.6
20260504023525 20 92 8.0 14.5 0.00 0.00 0.00 45 1006.6
20260504023049 20 74 6.4 14.5 0.00 0.00 0.00 47 1006.5
20260504022526 19 81 4.8 8.0 0.00 0.00 0.00 49 1006.5
20260504022026 19 69 1.6 3.2 0.00 0.00 0.00 51 1006.4
20260504021545 20 0 1.6 4.8 0.00 0.00 0.00 52 1006.6
20260504021023 20 0 0.0 6.4 0.00 0.00 0.00 51 1006.6
20260504020526 20 69 0.0 6.4 0.00 0.00 0.00 49 1006.7
20260504020042 19 0 3.2 6.4 0.00 0.00 0.00 50 1006.6
20260504015527 20 71 1.6 6.4 0.00 0.00 0.00 53 1006.5
20260504015024 20 70 0.0 6.4 0.00 0.00 0.00 52 1006.8
20260504014545 20 0 0.0 3.2 0.00 0.00 0.00 49 1006.7
20260504014026 20 0 0.0 3.2 0.00 0.00 0.00 48 1006.6
20260504013525 21 74 1.6 3.2 0.00 0.00 0.00 48 1006.6
20260504013041 21 0 0.0 8.0 0.00 0.00 0.00 48 1006.6
20260504012523 21 74 1.6 9.7 0.00 0.00 0.00 46 1006.3
20260504012025 22 74 4.8 11.3 0.00 0.00 0.00 42 1006.1
20260504011550 21 75 6.4 11.3 0.00 0.00 0.00 43 1006.0
20260504011023 21 88 4.8 8.0 0.00 0.00 0.00 44 1005.9
20260504010528 22 90 0.0 12.9 0.00 0.00 0.00 46 1006.0
20260504010047 22 0 1.6 17.7 0.00 0.00 0.00 43 1006.1
20260504005524 22 86 4.8 19.3 0.00 0.00 0.00 43 1005.9
20260504005024 22 86 9.7 19.3 0.00 0.00 0.00 42 1006.0
20260504004546 22 101 11.3 16.1 0.00 0.00 0.00 42 1006.0
20260504004024 22 92 6.4 11.3 0.00 0.00 0.00 42 1006.1
20260504003525 22 93 6.4 11.3 0.00 0.00 0.00 43 1006.3
20260504003046 22 92 6.4 11.3 0.00 0.00 0.00 42 1006.4
20260504002525 22 56 3.2 6.4 0.00 0.00 0.00 42 1006.6
20260504002025 23 55 1.6 6.4 0.00 0.00 0.00 43 1006.7
20260504001556 23 94 3.2 6.4 0.00 0.00 0.00 43 1006.8
20260504001025 23 94 3.2 6.4 0.00 0.00 0.00 40 1006.8
20260504000525 23 95 3.2 6.4 0.00 0.00 0.00 40 1006.8
20260504000040 23 96 1.6 4.8 0.00 0.00 0.00 41 1006.8
20260503235524 24 96 1.6 4.8 0.00 0.00 0.00 43 1006.8